Zurück zum Katalog

FENGYUN 1C DEB

AktivPO
NORAD 37701·DEBRIS·🇨🇳 China

Gestartet May 10, 1999 von Taiyuan Satellite Launch Center

Loading…

Nächste Überflüge (nächste 24 Stunden)

TLE

AlterndSource: Space-Track

Epoche: Sep 11, 2026, 02:37 UTC

1 37701U 99025ELS 26254.10929778  .00004268  00000-0  21716-2 0  9994
2 37701  97.6462   6.2448 0247993 143.3018 343.5032 14.01548162798750

Verfolge FENGYUN 1C DEB in Echtzeit mit AllMySat

Download on the App Store